Weather History for Fayetteville, AR

Change the Weather History Date:

Sunday, December 23, 2012

  Actual Average Record
Temperature  
Mean Temperature 53 °F 36 °F  
Max Temperature 63 °F 47 °F 69 °F (1982)
Min Temperature 42 °F 26 °F -14 °F (1963)
Degree Days  
Heating Degree Days 12 29  
Month to date heating degree days 422 620  
Since 1 July heating degree days 1235 1449  
Growing Degree Days 3 (Base 50)    
Moisture  
Dew Point 43 °F    
Average Humidity 68    
Maximum Humidity 89    
Minimum Humidity 46    
Precipitation  
Precipitation 0.00 in 0.11 in 0.96 in (2002)
Month to date precipitation 1.93 2.48  
Year to date precipitation 29.84 47.75  
Sea Level Pressure  
Sea Level Pressure 29.88 in    
Wind  
Wind Speed 6 mph (SW)    
Max Wind Speed 18 mph    
Max Gust Speed 35 mph    
Visibility 10 miles    
Events      
T = Trace of Precipitation, MM = Missing Value Source: NWS Daily Summary

Daily Weather History Graph

Daily Weather History Graph

Search for Another Location

Airport:

Trip Planner

Search our weather history database for the weather conditions in past years. The results will help you decide how hot, cold, wet, or windy it might be!

Date:

Astronomy

Dec. 23, 2012 Rise Set
Actual Time 7:24 AM CST 5:07 PM CST
Civil Twilight 6:56 AM CST 5:36 PM CST
Nautical Twilight 6:23 AM CST 6:08 PM CST
Astronomical Twilight 5:52 AM CST 6:39 PM CST
Moon 1:55 PM CST (12/23) 3:11 AM CST (12/23)
Length of Visible Light 10h 40m
Length of Day
9h 42m
Waxing Gibbous, 82% of the Moon is Illuminated
Dec 23
Waxing Gibbous
Dec 28
Full
Jan 4
Last Quarter
Jan 11
New
Jan 18
First Quarter

Hourly Weather History & Observations

Time (CST) Temp. Windchill Dew Point Humidity Pressure Visibility Wind Dir Wind Speed Gust Speed Precip Events Conditions
12:53 AM 50.0 °F - 34.0 °F 54% 29.98 in 10.0 mi SSW 5.8 mph - N/A   Clear
1:53 AM 50.0 °F - 36.0 °F 59% 29.96 in 10.0 mi SSW 10.4 mph - N/A   Clear
2:53 AM 51.1 °F - 39.0 °F 63% 29.95 in 10.0 mi SSW 11.5 mph - N/A   Clear
3:53 AM 51.1 °F - 39.9 °F 66% 29.94 in 10.0 mi SSW 9.2 mph - N/A   Clear
4:53 AM 48.9 °F - 39.9 °F 71% 29.93 in 10.0 mi SW 3.5 mph - N/A   Clear
5:53 AM 48.9 °F - 41.0 °F 74% 29.93 in 10.0 mi SSW 4.6 mph - N/A   Clear
6:53 AM 48.0 °F - 42.1 °F 80% 29.93 in 10.0 mi WSW 3.5 mph - N/A   Clear
7:53 AM 48.9 °F - 43.0 °F 80% 29.94 in 10.0 mi WSW 3.5 mph - N/A   Clear
8:53 AM 52.0 °F - 45.0 °F 77% 29.92 in 10.0 mi SSW 9.2 mph - N/A   Clear
9:53 AM 55.9 °F - 46.9 °F 72% 29.93 in 10.0 mi South 13.8 mph 19.6 mph N/A   Clear
10:53 AM 57.9 °F - 48.0 °F 70% 29.91 in 10.0 mi South 15.0 mph 20.7 mph N/A   Mostly Cloudy
11:53 AM 57.0 °F - 46.9 °F 69% 29.88 in 10.0 mi SW 6.9 mph - N/A   Mostly Cloudy
12:53 PM 57.9 °F - 46.0 °F 65% 29.83 in 10.0 mi South 5.8 mph - N/A   Mostly Cloudy
1:00 PM 59.0 °F - 46.4 °F 63% 29.85 in 10.0 mi SW 6.9 mph - N/A   Mostly Cloudy
1:53 PM 61.0 °F - 44.1 °F 54% 29.81 in 10.0 mi South 9.2 mph - N/A   Partly Cloudy
2:53 PM 61.0 °F - 44.1 °F 54% 29.79 in 10.0 mi WSW 8.1 mph - N/A   Clear
3:53 PM 61.0 °F - 44.1 °F 54% 29.80 in 10.0 mi SW 6.9 mph - N/A   Clear
4:53 PM 57.0 °F - 44.1 °F 62% 29.81 in 10.0 mi SW 4.6 mph - N/A   Mostly Cloudy
5:53 PM 54.0 °F - 44.1 °F 69% 29.83 in 10.0 mi Calm Calm - N/A   Mostly Cloudy
6:53 PM 48.9 °F - 43.0 °F 80% 29.83 in 10.0 mi Calm Calm - N/A   Mostly Cloudy
7:53 PM 45.0 °F - 41.0 °F 86% 29.82 in 10.0 mi Calm Calm - N/A   Clear
8:53 PM 46.0 °F - 42.1 °F 86% 29.83 in 10.0 mi Calm Calm - N/A   Partly Cloudy
9:53 PM 48.9 °F - 44.1 °F 83% 29.84 in 10.0 mi NW 9.2 mph - N/A   Mostly Cloudy
10:53 PM 46.9 °F - 41.0 °F 80% 29.85 in 10.0 mi NNW 6.9 mph - N/A   Overcast
11:53 PM 43.0 °F 38.8 °F 37.9 °F 82% 29.86 in 10.0 mi NNW 6.9 mph - N/A   Clear